Regional Weather Roundup
Issued by NWS Little Rock, AR

Home | Current Version | Previous Version | Text Only | Print | Product List | Glossary Off
Versions: 1 2 3 4 5 6 7 8 9 10 11 12 13 14 15 16 17 18 19 20 21 22 23 24 25 26 27 28 29 30 31

000
ASUS44 KLZK 230205
RWRLZK

WEATHER ROUNDUP FOR ARKANSAS
NATIONAL WEATHER SERVICE LITTLE ROCK AR
800 PM CST MON JAN 22 2018

NOTE: "FAIR" INDICATES FEW OR NO CLOUDS BELOW 12,000 FEET WITH NO
SIGNIFICANT WEATHER AND/OR OBSTRUCTIONS TO VISIBILITY.

ARZ001-003-010-029-230300-
NORTHWEST ARKANSAS

CITY           SKY/WX    TMP DP  RH WIND       PRES   REMARKS
FAYETTEVILLE   CLOUDY    41  28  60 W14G22    29.86R
FORT SMITH     CLEAR     45  30  55 W18       29.91S
HARRISON       CLOUDY    41  26  55 W22G35    29.77R
BENTONVILLE    CLOUDY    40  26  57 W20G26    29.86R
ROGERS         CLOUDY    40  26  57 W32G38    29.82R
SILOAM SPGS    CLOUDY    42  27  55 W24G32    29.86R
HIGHFILL       LGT RAIN  41  26  55 W21G36    29.84R
SPRINGDALE     CLOUDY    41  27  56 W21G33    29.85R
$$

ARZ004-005-016-230300-
NORTH CENTRAL ARKANSAS

CITY           SKY/WX    TMP DP  RH WIND       PRES   REMARKS
BATESVILLE     CLOUDY    46  29  51 W20G26    29.81R
FLIPPIN        CLOUDY    44  27  51 W20G33    29.79S
MTN HOME       CLOUDY    42  28  57 NW13G23   29.77R
$$

ARZ040-041-230300-
WEST CENTRAL ARKANSAS

CITY           SKY/WX    TMP DP  RH WIND       PRES   REMARKS
MENA           CLEAR     46  30  53 W18       29.94S
$$

ARZ009-017-025-026-028-230300-
NORTHEAST ARKANSAS

CITY           SKY/WX    TMP DP  RH WIND       PRES   REMARKS
JONESBORO      CLOUDY    49  31  49 SW24G37   29.79S
NEWPORT        FAIR      48  29  47 W21       29.82R
WALNUT RIDGE   CLOUDY    48  28  46 SW17      29.77R
BLYTHEVILLE    CLOUDY    48  37  65 SW9       29.80S
$$

ARZ022-023-033-042-044-230300-
CENTRAL ARKANSAS

CITY           SKY/WX    TMP DP  RH WIND       PRES   REMARKS
LITTLE ROCK    CLEAR     48  27  44 W18G26    29.89S
N LITTLE ROCK    N/A     46  30  53 W9G20     29.82S
JACKSONVILLE   CLEAR     47  29  49 W15G24    29.87R
SEARCY         FAIR      48  28  46 W14G25    29.86R
HOT SPRINGS    CLEAR     47  28  47 W9        29.92S
RUSSELLVILLE   MOCLDY    46  29  51 W16G29    29.88R
CLINTON        CLOUDY    46  27  46 W14G36    29.84R
$$

ARZ036-230300-
EAST ARKANSAS

CITY           SKY/WX    TMP DP  RH WIND       PRES   REMARKS
WEST MEMPHIS   FAIR      50  35  56 SW9       29.84R
$$

ARZ050-053-066-070-073-230300-
SOUTHWEST ARKANSAS

CITY           SKY/WX    TMP DP  RH WIND       PRES   REMARKS
ARKADELPHIA    FAIR      47  29  49 W8        29.96S
CAMDEN         MOCLDY    48  25  40 CALM      29.98R
TEXARKANA      CLEAR     46  29  51 SW8       30.00R
EL DORADO      FAIR      50  29  44 SW7       30.00R
DE QUEEN       CLEAR     46  29  51 W8        29.98R
$$

ARZ056-057-069-230300-
SOUTHEAST ARKANSAS

CITY           SKY/WX    TMP DP  RH WIND       PRES   REMARKS
PINE BLUFF     FAIR      48  30  49 W12       29.93R
STUTTGART      FAIR      47  34  60 W13       29.91R
MONTICELLO     FAIR      50  29  44 W8        29.95R

$$






USA.gov is the U.S. government's official web portal to all federal, state and local government web resources and services.